Weather in Vanzetur

Russia / Khanty-Mansi Autonomous Okrug — Yugra     63°32′11″N   64°48′49″E
temp.,
°C
wind,
m/s
gust,
m/s
humid.,
%
clouds,
%
prec.,
mm/h
press.,
hPa
HPBL,
m
17 may, tue
tue1723:00+9w22835 0.1 99611
02:00+7nw119291 0.5 99510
05:00+7nw229112 0.9 99535
08:00+11n347664 0.0 995460
11:00+13nne336496 0.0 9961200
14:00+13nnw3458100 0.0 9971223
17:00+13n3457100 0.0 998937
20:00+10nnw256798 0.0 999133
18 may, wed
wed1823:00+7n387389 0.0 1001287
02:00+5nne3777100 0.0 1002426
05:00+4nne377365 0.0 1003447
08:00+5ne4660100 0.0 1004601
11:00+7ne455294 0.0 1005789
14:00+10ene4549100 0.0 10041049
17:00+10e3559100 0.1 10041193
20:00+8ene3777100 0.0 1003550
19 may, thu
thu1923:00+7ne4985100 0.6 1002577
02:00+7ne4980100 0.0 1002501
05:00+6nne51077100 0.1 1001486
08:00+7nne5974100 0.0 1000469
11:00+11nne6765100 0.0 999826
14:00+12nne5968100 0.0 997820
17:00+12nne71171100 0.2 996941
20:00+9nne71284100 0.5 996656
20 may, fri
fri2023:00+8nne71388100 3.3 995668
02:00+6nne71392100 0.7 994627
05:00+6nne71392100 1.3 994657
08:00+5nne71490100 0.3 994649
11:00+6nne71489100 0.4 995752
14:00+7nne81382100 1.6 996824
17:00+6nne71479100 1.6 997822
20:00+7nne71476100 0.1 998849
21 may, sat
sat2123:00+6nne61474100 0.1 999834
02:00+6nne61374100 0.0 1000745
05:00+5nne6127499 0.1 1002615
08:00+6nne61066100 0.0 1003690
11:00+10nne674877 0.0 10041202
14:00+12nne564345 0.0 10051568
17:00+12nne5644100 0.0 10041839
20:00+10nne6851100 0.0 1005978